カタログに戻る

NOAA 12 DEB

運用中SSO
NORAD 38547·DEBRIS·🇺🇸 United States

打ち上げ May 14, 1991 から Vandenberg Space Force Base

Loading…

次のパス (今後24時間)

TLE

経年Source: Space-Track

元期: Sep 10, 2026, 05:17 UTC

1 38547U 91032G   26253.22015393  .00000168  00000-0  80161-4 0  9990
2 38547  98.5325 237.2592 0006140  94.0071 266.1814 14.30977047775372

AllMySatでNOAA 12 DEBをリアルタイム追跡

Download on the App Store